Location: Unspecified
(0.0000°N, 0.0000°E)
Time: 20:24:41
(UTC+00:00)

CUTE-I - Pass Details

Date: 15 December 2017
Orbit: 811 x 825 km, 98.7° (Epoch: 24 June)

Event Time Altitude Azimuth Distance (km) Brightness Sun altitude
Rises 05:07:23 0° 39° (NE) 3,320 ? -10.9°
Reaches altitude 10° 05:10:15 10° 55° (NE) 2,390 ? -10.3°
Maximum altitude 05:14:10 21° 103° (ESE) 1,732 ? -9.4°
Drops below altitude 10° 05:18:06 10° 151° (SSE) 2,396 ? -8.5°
Sets 05:20:58 0° 166° (SSE) 3,330 ? -7.8°
